TimePDT,TemperatureF,Dew PointF,Humidity,Sea Level PressureIn,VisibilityMPH,Wind Direction,Wind SpeedMPH,Gust SpeedMPH,PrecipitationIn,Events,Conditions,WindDirDegrees,DateUTC
12:56 AM,51.1,50.0,96,30.19,10.0,SE,9.2,-,N/A,,Clear,140,2012-10-14 07:56:00
1:56 AM,51.1,50.0,96,30.18,10.0,SE,10.4,-,N/A,,Clear,140,2012-10-14 08:56:00
2:56 AM,51.1,48.9,92,30.16,10.0,SSE,12.7,-,N/A,,Clear,160,2012-10-14 09:56:00
3:25 AM,50.0,48.2,94,30.22,1.2,South,12.7,-,N/A,,Partly Cloudy,170,2012-10-14 10:25:00
3:29 AM,50.0,50.0,100,30.21,0.2,South,13.8,-,0.00,Fog-Rain,Light Rain,170,2012-10-14 10:29:00
3:56 AM,50.0,50.0,100,30.14,0.2,South,11.5,-,0.00,Fog-Rain,Light Rain,170,2012-10-14 10:56:00
4:22 AM,50.0,48.2,94,30.21,1.0,South,13.8,-,0.00,Rain,Light Rain,170,2012-10-14 11:22:00
4:24 AM,50.0,48.2,94,30.21,3.0,South,12.7,-,0.00,,Mostly Cloudy,170,2012-10-14 11:24:00
4:32 AM,50.0,48.2,94,30.21,10.0,South,11.5,-,0.00,,Scattered Clouds,170,2012-10-14 11:32:00
4:56 AM,50.0,48.9,96,30.14,10.0,South,11.5,-,0.00,,Clear,170,2012-10-14 11:56:00
5:56 AM,50.0,48.9,96,30.15,10.0,South,9.2,-,N/A,,Clear,180,2012-10-14 12:56:00
6:56 AM,50.0,48.9,96,30.15,10.0,South,10.4,-,N/A,,Clear,170,2012-10-14 13:56:00
7:56 AM,51.1,48.9,92,30.14,10.0,South,11.5,-,N/A,,Clear,190,2012-10-14 14:56:00
8:56 AM,52.0,50.0,93,30.16,10.0,South,10.4,-,N/A,,Clear,190,2012-10-14 15:56:00
9:32 AM,51.8,50.0,94,30.22,10.0,SSW,9.2,-,N/A,,Partly Cloudy,200,2012-10-14 16:32:00
9:56 AM,54.0,50.0,86,30.17,10.0,South,8.1,-,N/A,,Scattered Clouds,190,2012-10-14 16:56:00
10:15 AM,53.6,50.0,88,30.23,10.0,South,10.4,-,N/A,,Mostly Cloudy,190,2012-10-14 17:15:00
10:56 AM,54.0,50.0,86,30.16,10.0,South,13.8,20.7,N/A,,Overcast,170,2012-10-14 17:56:00
11:56 AM,55.0,50.0,83,30.15,10.0,South,12.7,18.4,N/A,,Mostly Cloudy,180,2012-10-14 18:56:00
12:33 PM,55.4,50.0,82,30.21,10.0,South,13.8,20.7,N/A,,Scattered Clouds,180,2012-10-14 19:33:00
12:56 PM,55.0,50.0,83,30.15,10.0,South,11.5,21.9,N/A,,Clear,190,2012-10-14 19:56:00
1:56 PM,57.0,50.0,77,30.13,10.0,South,8.1,-,N/A,,Clear,190,2012-10-14 20:56:00
2:56 PM,57.9,48.9,72,30.12,10.0,Variable,4.6,-,N/A,,Clear,0,2012-10-14 21:56:00
3:56 PM,57.0,48.9,74,30.12,10.0,Calm,Calm,-,N/A,,Clear,0,2012-10-14 22:56:00
4:56 PM,55.9,46.9,72,30.12,10.0,Variable,4.6,-,N/A,,Clear,0,2012-10-14 23:56:00
5:56 PM,55.0,46.9,74,30.10,10.0,SSW,8.1,-,N/A,,Clear,200,2012-10-15 00:56:00
6:56 PM,53.1,46.9,80,30.09,10.0,South,9.2,-,N/A,,Clear,190,2012-10-15 01:56:00
7:56 PM,52.0,46.9,83,30.07,10.0,South,16.1,23.0,N/A,,Mostly Cloudy,190,2012-10-15 02:56:00
8:56 PM,51.1,48.0,89,30.08,10.0,South,15.0,-,0.00,Rain,Light Rain,180,2012-10-15 03:56:00
9:56 PM,51.1,48.0,89,30.07,10.0,South,15.0,-,0.01,,Overcast,190,2012-10-15 04:56:00
10:56 PM,50.0,48.0,93,30.08,10.0,South,15.0,-,0.01,,Overcast,190,2012-10-15 05:56:00
11:56 PM,50.0,48.9,96,30.07,10.0,South,13.8,-,N/A,,Overcast,190,2012-10-15 06:56:00